When you browse on this site, cookies collect data to enhance your experience and personalize the content and advertising you see.
Visit our Privacy Policy to learn more. By continuing to use the site, you agree to this use of cookies and data.
  • Em Portugal
  • Lista de países
  • Para 7 dias
  • Temperatura da água
  • Mapas de satélite
  • Mapa do tempo
  • Widgets de tempo
  • user-avatar
    Iniciar Sessão

    Previsão horária em Antuérpia

    Hoje, 26 Maio, Domingo

    Tempo Temperatura Precipitação Vento Pressão Humidade
    00:00 +12°C° 0 mm 2 m/s 762 mmHg 84%
    01:00 +12°C° 0 mm 2 m/s 762 mmHg 86%
    02:00 +10°C° 0 mm 3 m/s 761 mmHg 89%
    03:00 +10°C° 0 mm 3 m/s 761 mmHg 92%
    04:00 +11°C° 0 mm 3 m/s 761 mmHg 91%
    05:00 +12°C° 0 mm 4 m/s 761 mmHg 90%
    06:00 +13°C° 0 mm 4 m/s 760 mmHg 89%
    07:00 +15°C° 0 mm 5 m/s 760 mmHg 83%
    08:00 +17°C° 0 mm 5 m/s 760 mmHg 77%
    09:00 +20°C° 0 mm 5 m/s 760 mmHg 71%
    10:00 +21°C° 0.1 mm 6 m/s 760 mmHg 67%
    11:00 +22°C° 0.1 mm 6 m/s 759 mmHg 63%
    12:00 +23°C° 0.1 mm 6 m/s 759 mmHg 59%
    13:00 +22°C° 0.1 mm 7 m/s 759 mmHg 61%
    14:00 +22°C° 0.1 mm 7 m/s 758 mmHg 63%
    15:00 +21°C° 0.1 mm 7 m/s 758 mmHg 66%
    16:00 +20°C° 0 mm 7 m/s 758 mmHg 69%
    17:00 +19°C° 0 mm 6 m/s 757 mmHg 72%
    18:00 +17°C° 0 mm 6 m/s 757 mmHg 76%
    19:00 +17°C° 0.1 mm 6 m/s 757 mmHg 78%
    20:00 +16°C° 0.1 mm 6 m/s 757 mmHg 81%
    21:00 +15°C° 0.1 mm 6 m/s 757 mmHg 84%
    22:00 +15°C° 0.4 mm 5 m/s 757 mmHg 87%
    23:00 +15°C° 0.4 mm 5 m/s 757 mmHg 90%

    Amanhã, 27 Maio, Segunda-feira

    Tempo Temperatura Precipitação Vento Pressão Humidade
    00:00 +14°C° 0.4 mm 4 m/s 757 mmHg 93%
    01:00 +14°C° 0.1 mm 4 m/s 757 mmHg 91%
    02:00 +13°C° 0.1 mm 3 m/s 757 mmHg 89%
    03:00 +13°C° 0.1 mm 3 m/s 757 mmHg 87%
    04:00 +13°C° 0 mm 3 m/s 757 mmHg 86%
    05:00 +13°C° 0 mm 3 m/s 757 mmHg 84%
    06:00 +13°C° 0 mm 3 m/s 757 mmHg 83%
    07:00 +14°C° 0 mm 3 m/s 758 mmHg 76%
    08:00 +15°C° 0 mm 4 m/s 758 mmHg 69%
    09:00 +15°C° 0 mm 4 m/s 758 mmHg 63%
    10:00 +17°C° 0 mm 4 m/s 758 mmHg 60%
    11:00 +17°C° 0 mm 4 m/s 758 mmHg 57%
    12:00 +17°C° 0 mm 4 m/s 758 mmHg 54%
    13:00 +17°C° 0 mm 4 m/s 757 mmHg 55%
    14:00 +17°C° 0 mm 4 m/s 757 mmHg 55%
    15:00 +17°C° 0 mm 4 m/s 757 mmHg 55%
    16:00 +17°C° 0 mm 3 m/s 757 mmHg 56%
    17:00 +17°C° 0 mm 2 m/s 757 mmHg 58%
    18:00 +17°C° 0 mm 2 m/s 756 mmHg 59%
    19:00 +15°C° 0 mm 2 m/s 756 mmHg 64%
    20:00 +14°C° 0 mm 2 m/s 756 mmHg 70%
    21:00 +13°C° 0 mm 2 m/s 756 mmHg 75%
    22:00 +12°C° 0 mm 2 m/s 756 mmHg 78%
    23:00 +11°C° 0 mm 3 m/s 756 mmHg 81%

    Depois de amanhã, 28 Maio, Terça-feira

    Tempo Temperatura Precipitação Vento Pressão Humidade
    00:00 +11°C° 0 mm 3 m/s 755 mmHg 84%
    01:00 +11°C° 0 mm 3 m/s 755 mmHg 86%
    02:00 +10°C° 0 mm 3 m/s 755 mmHg 87%
    03:00 +10°C° 0 mm 3 m/s 754 mmHg 88%
    04:00 +11°C° 0.1 mm 4 m/s 754 mmHg 86%
    05:00 +11°C° 0.1 mm 4 m/s 754 mmHg 84%
    06:00 +12°C° 0.1 mm 4 m/s 754 mmHg 82%
    07:00 +13°C° 0.9 mm 4 m/s 754 mmHg 78%
    08:00 +14°C° 0.9 mm 4 m/s 754 mmHg 75%
    09:00 +14°C° 0.9 mm 4 m/s 754 mmHg 72%
    10:00 +15°C° 0.9 mm 4 m/s 754 mmHg 70%
    11:00 +16°C° 0.9 mm 3 m/s 755 mmHg 68%
    12:00 +17°C° 0.9 mm 3 m/s 755 mmHg 66%
    13:00 +17°C° 0.2 mm 4 m/s 755 mmHg 64%
    14:00 +17°C° 0.2 mm 4 m/s 755 mmHg 62%
    15:00 +17°C° 0.2 mm 5 m/s 755 mmHg 59%
    16:00 +16°C° 0 mm 5 m/s 755 mmHg 62%
    17:00 +15°C° 0 mm 4 m/s 756 mmHg 64%
    18:00 +15°C° 0 mm 4 m/s 756 mmHg 66%
    19:00 +13°C° 0 mm 4 m/s 757 mmHg 73%
    20:00 +12°C° 0 mm 3 m/s 758 mmHg 80%
    21:00 +10°C° 0 mm 3 m/s 758 mmHg 87%
    22:00 +10°C° 0 mm 3 m/s 759 mmHg 88%
    23:00 +10°C° 0 mm 3 m/s 759 mmHg 90%

    29 Maio, Quarta-feira

    Tempo Temperatura Precipitação Vento Pressão Humidade
    00:00 +9°C° 0 mm 3 m/s 760 mmHg 91%
    01:00 +9°C° 0 mm 3 m/s 760 mmHg 87%
    02:00 +9°C° 0 mm 3 m/s 760 mmHg 83%
    03:00 +9°C° 0 mm 3 m/s 761 mmHg 80%
    04:00 +10°C° 0 mm 3 m/s 761 mmHg 77%
    05:00 +10°C° 0 mm 3 m/s 762 mmHg 74%
    06:00 +10°C° 0 mm 3 m/s 762 mmHg 72%
    07:00 +11°C° 0 mm 3 m/s 763 mmHg 65%
    08:00 +14°C° 0 mm 2 m/s 763 mmHg 58%
    09:00 +15°C° 0 mm 2 m/s 763 mmHg 51%
    10:00 +16°C° 0 mm 2 m/s 764 mmHg 48%
    11:00 +17°C° 0 mm 2 m/s 764 mmHg 45%
    12:00 +18°C° 0 mm 2 m/s 764 mmHg 42%
    13:00 +18°C° 0 mm 2 m/s 764 mmHg 45%
    14:00 +17°C° 0 mm 2 m/s 764 mmHg 48%
    15:00 +17°C° 0 mm 2 m/s 764 mmHg 51%
    16:00 +17°C° 0 mm 2 m/s 764 mmHg 54%
    17:00 +16°C° 0 mm 2 m/s 764 mmHg 57%
    18:00 +16°C° 0 mm 2 m/s 764 mmHg 60%
    19:00 +14°C° 0 mm 1 m/s 764 mmHg 64%
    20:00 +13°C° 0 mm 1 m/s 764 mmHg 68%
    21:00 +10°C° 0 mm 0 m/s 765 mmHg 72%
    22:00 +11°C° 0 mm 1 m/s 765 mmHg 71%
    23:00 +12°C° 0 mm 1 m/s 765 mmHg 71%

    30 Maio, Quinta-feira

    Tempo Temperatura Precipitação Vento Pressão Humidade
    00:00 +12°C° 0 mm 1 m/s 765 mmHg 71%
    01:00 +12°C° 0 mm 2 m/s 765 mmHg 74%
    02:00 +10°C° 0 mm 2 m/s 764 mmHg 77%
    03:00 +10°C° 0 mm 3 m/s 764 mmHg 81%
    04:00 +11°C° 0 mm 3 m/s 765 mmHg 82%
    05:00 +11°C° 0 mm 3 m/s 765 mmHg 83%
    06:00 +11°C° 0 mm 3 m/s 765 mmHg 84%
    07:00 +13°C° 0.1 mm 3 m/s 765 mmHg 79%
    08:00 +14°C° 0.1 mm 4 m/s 765 mmHg 73%
    09:00 +15°C° 0.1 mm 4 m/s 765 mmHg 68%
    10:00 +15°C° 0.2 mm 4 m/s 765 mmHg 69%
    11:00 +17°C° 0.2 mm 4 m/s 765 mmHg 71%
    12:00 +17°C° 0.2 mm 4 m/s 765 mmHg 72%
    13:00 +17°C° 0.2 mm 4 m/s 765 mmHg 72%
    14:00 +17°C° 0.2 mm 4 m/s 766 mmHg 73%
    15:00 +17°C° 0.2 mm 3 m/s 766 mmHg 73%
    16:00 +17°C° 0.1 mm 3 m/s 766 mmHg 75%
    17:00 +16°C° 0.1 mm 2 m/s 766 mmHg 76%
    18:00 +16°C° 0.1 mm 2 m/s 766 mmHg 78%
    19:00 +15°C° 0.1 mm 2 m/s 767 mmHg 80%
    20:00 +14°C° 0.1 mm 1 m/s 767 mmHg 82%
    21:00 +13°C° 0.1 mm 1 m/s 767 mmHg 83%
    22:00 +13°C° 0.5 mm 1 m/s 767 mmHg 85%
    23:00 +13°C° 0.5 mm 1 m/s 767 mmHg 87%

    31 Maio, Sexta-feira

    Tempo Temperatura Precipitação Vento Pressão Humidade
    00:00 +13°C° 0.5 mm 1 m/s 767 mmHg 88%
    01:00 +13°C° 0.2 mm 1 m/s 767 mmHg 90%
    02:00 +13°C° 0.2 mm 2 m/s 767 mmHg 92%
    03:00 +13°C° 0.2 mm 2 m/s 767 mmHg 94%
    04:00 +14°C° 0 mm 2 m/s 767 mmHg 94%
    05:00 +14°C° 0 mm 3 m/s 767 mmHg 94%
    06:00 +14°C° 0 mm 3 m/s 767 mmHg 94%
    07:00 +15°C° 0.1 mm 4 m/s 767 mmHg 93%
    08:00 +15°C° 0.1 mm 4 m/s 767 mmHg 92%
    09:00 +15°C° 0.1 mm 4 m/s 768 mmHg 91%
    10:00 +16°C° 0.1 mm 5 m/s 768 mmHg 88%
    11:00 +17°C° 0.1 mm 5 m/s 768 mmHg 84%
    12:00 +19°C° 0.1 mm 5 m/s 768 mmHg 81%
    13:00 +19°C° 0 mm 5 m/s 768 mmHg 77%
    14:00 +20°C° 0 mm 6 m/s 767 mmHg 73%
    15:00 +21°C° 0 mm 6 m/s 767 mmHg 69%
    16:00 +20°C° 0 mm 5 m/s 768 mmHg 70%
    17:00 +20°C° 0 mm 5 m/s 768 mmHg 71%
    18:00 +20°C° 0 mm 5 m/s 768 mmHg 72%
    19:00 +19°C° 0 mm 4 m/s 768 mmHg 78%
    20:00 +17°C° 0 mm 4 m/s 768 mmHg 83%
    21:00 +15°C° 0 mm 4 m/s 769 mmHg 89%
    22:00 +14°C° 0 mm 4 m/s 769 mmHg 90%
    23:00 +14°C° 0 mm 4 m/s 769 mmHg 92%
    Mostrar mais